[[{"header":{"parameterUnit":"m.s-1","parameterCategory":1,"la1":30.2991,"la2":30.254,"lo1":-89.0895,"lo2":-89.0444,"dy":0.0017,"dx":0.0017,"nx":28,"ny":28,"refTime":"2023-09-10T09:00:00:Z","depth":0,"parameterNumber":2,"parameterNumberName":"U-component_of_WINDS"},"data":[0,0,0,0,0,0,0,0,0,0,0,0,0,0,0,0,0,0,0,0,0,0,0,0,0,0,0,0,0,0,0,0,0,0,0,0,0,0,0,0,0,0,0,0,0,0,0,0,0,0,0,0,0,0,0,0,0,0,0.9967,0.9969,0,1.0096,1.0097,1.0098,1.0169,1.0169,1.0169,1.0169,1.0299,1.0302,1.0305,0,0,0,0,0,0,0,0,0,0,0,0,0,0.9779,0.9782,0.9967,0.9969,0.997,1.0095,1.0097,1.0099,1.0168,1.0169,1.0169,1.0169,1.0297,1.0301,1.0305,0,0,0,0,0,0,0,0,0,0,0,0,0,0.9879,0.9783,0.9967,1.002,1.0026,1.0095,1.0097,1.0099,1.0168,1.0169,1.0169,1.0169,1.0296,1.0301,1.0306,1.0331,0,0,1.0321,1.0323,0,0,0,0,0,0,0,0,0.9873,0.9886,1.0011,1.0017,1.0024,1.0116,1.0078,1.0177,1.0168,1.0114,1.0169,1.0169,1.0238,1.0247,1.0271,1.0337,1.0342,1.0321,1.0324,1.0326,1.0328,0,0,0,0,0,0,0,0.9866,0.9881,1.0018,1.0012,1.002,1.0037,1.0051,1.0097,1.0173,1.0119,1.0124,1.0139,1.0241,1.0266,1.0274,1.0344,1.0321,1.0326,1.0329,1.0331,1.0436,1.0436,0,0,0,0,0,0,0.9851,0.9875,1.0014,1.0022,0.9948,1.004,1.0056,1.0086,1.0173,1.0186,1.0138,1.0142,1.0257,1.0268,1.0279,1.0313,1.0326,1.0331,1.0334,1.0436,1.0436,1.0436,0,0,0,0,0,0,0.9847,0.9863,1.0009,0.995,0.997,1.0043,1.0076,1.0089,1.0114,1.0187,1.0201,1.015,1.0258,1.0272,1.0317,1.0319,1.0333,1.0338,1.0436,1.0436,1.0436,1.0382,0,0,0,0,0,0,0.9841,0.9861,0.9872,0.995,0.9972,1.0045,1.0076,1.0091,1.0122,1.0127,1.0202,1.0214,1.0259,1.0309,1.0322,1.0326,1.0342,1.0436,1.0436,1.0436,1.0384,1.038,1.0376,0,0,0,0,0,0.9834,0.9852,0.9872,0.9889,0.9988,1.0045,1.0058,1.011,1.0122,1.0133,1.018,1.0212,1.0316,1.0314,1.0328,1.0333,1.0436,1.0436,1.0436,1.0385,1.038,1.0376,0,0,0,0,0,0,0.9772,0.9863,0.9887,0.993,0.9979,1.0057,1.0073,1.0104,1.015,1.0153,1.0215,1.0231,1.027,1.0307,1.0302,1.0361,1.038,1.0382,1.0336,1.0332,1.0328,1.0319,1.0346,0,0,0,0,0,0.9764,0.9804,0.988,0.9911,0.9934,0.9999,1.0026,1.0062,1.0115,1.0136,1.0187,1.0237,1.0281,1.0309,1.0353,1.0389,1.0406,1.04,1.0396,1.0393,1.0394,1.0414,1.0412,1.0434,1.0434,1.0434,0,0,0.9746,0.9801,0.9822,0.99,0.9942,0.9981,1.0016,1.0056,1.0085,1.0142,1.0188,1.0226,1.0286,1.0326,1.0346,1.0357,1.0391,1.0392,1.0389,1.0392,1.0414,1.0411,1.0409,1.0434,1.0434,1.0434,0,0,0.9734,0.978,0.981,0.9851,0.9915,0.9958,0.9965,1.0038,1.0066,1.0112,1.0156,1.019,1.0265,1.0306,1.0336,1.0338,1.0368,1.035,1.0331,1.035,1.0348,1.0347,1.0346,1.0345,1.0352,1.0351,1.0351,0,0.9704,0.9765,0.9821,0.9858,0.989,0.9944,0.9974,1.0011,1.0086,1.0107,1.0118,1.0213,1.0257,1.0306,1.0306,1.033,1.0339,1.0342,1.0344,1.0343,1.0343,1.0343,1.0343,1.0349,1.0349,1.0349,1.035,0,0.9725,0.9766,0.9782,0.9854,0.9888,0.9921,0.998,1.0008,1.004,1.0081,1.0127,1.0182,1.0238,1.0252,1.0284,1.0306,1.0311,1.0332,1.0352,1.0337,1.0338,1.0339,1.0345,1.0346,1.0347,1.0347,0,0,0.9678,0.9779,0.9784,0.9816,0.989,0.9922,0.9957,1.0012,1.0034,1.0084,1.0114,1.0175,1.0195,1.0229,1.0266,1.0283,1.0279,1.0302,1.0305,1.0295,1.0305,1.0287,1.0287,1.03,1.03,1.03,1.0299,0,0.9676,0.9742,0.9792,0.9839,0.9877,0.9928,0.9958,1.0005,1.0044,1.0081,1.0124,1.0166,1.019,1.0211,1.023,1.0275,1.0281,1.0276,1.0327,1.0328,1.031,1.0288,1.027,1.0267,1.03,1.03,1.0301,0,0.9683,0.973,0.978,0.9849,0.9867,0.9893,0.9947,0.9982,1.0037,1.0064,1.0101,1.0139,1.0177,1.0193,1.0245,1.024,1.0264,1.0289,1.029,1.0297,1.0313,1.0292,1.0267,1.0266,1.0302,1.0302,1.0302,0,0.9642,0.9719,0.9759,0.9785,0.9866,0.9883,0.9917,0.9972,1.0002,1.0048,1.0068,1.0118,1.0145,1.0183,1.0233,1.024,1.0279,1.03,1.0302,1.03,1.0307,1.0306,1.0285,1.0324,1.0324,1.0324,1.0324,0,0.9635,0.9663,0.9741,0.9766,0.9798,0.9855,0.9886,0.9924,0.9973,1.0004,1.0051,1.008,1.0144,1.018,1.022,1.0256,1.0268,1.029,1.03,1.0286,1.0283,1.0302,1.0303,1.0324,1.0324,1.0324,1.0324,0,0.9595,0.9649,0.9695,0.9768,0.9787,0.9807,0.9869,0.9894,0.9935,0.9974,0.9987,1.0051,1.0095,1.0149,1.0211,1.0237,1.027,1.0285,1.0251,1.0257,1.0255,1.0254,1.0245,1.0246,1.0284,1.0284,1.0284,0,0.9586,0.9609,0.9684,0.9709,0.9742,0.9781,0.9811,0.9868,0.9897,0.996,0.9976,1.0025,1.0066,1.0135,1.0187,1.0234,1.025,1.0244,1.0258,1.0242,1.0249,1.0247,1.0249,1.024,1.0239,1.0238,1.0238,0,0.9565,0.959,0.9632,0.9682,0.9717,0.9759,0.9804,0.9821,0.9886,0.9916,0.9963,0.9995,1.0058,1.0105,1.0158,1.0193,1.0226,1.0233,1.0236,1.0221,1.02,1.021,1.024,1.0233,1.0234,1.0234,1.0234,1.0234,0.954,0.9562,0.9618,0.9662,0.9702,0.9742,0.9768,0.9812,0.9852,0.9908,0.9938,0.9983,1.0036,1.0111,1.0144,1.018,1.0191,1.0196,1.0197,1.0197,1.0192,1.0195,1.019,1.019,1.019,1.019,1.0191,0,0.952,0.9558,0.9598,0.9659,0.9693,0.9722,0.9772,0.9798,0.9838,0.9884,0.9924,0.9976,1.0021,1.0076,1.0124,1.0142,1.0158,1.0153,1.0152,1.0159,1.0179,1.0171,1.0139,1.0139,1.0139,1.0139,1.0139,1.0139,0.9513,0.9552,0.9583,0.9641,0.9679,0.9724,0.975,0.9786,0.9823,0.988,0.9917,0.9953,1.0002,1.0054,1.0097,1.0111,1.0127,1.0116,1.0135,1.0153,1.0158,1.0162,1.0155,1.012,1.012,1.0112,1.0112,1.0112]},{"header":{"parameterUnit":"m.s-1","parameterCategory":1,"la1":30.2991,"la2":30.254,"lo1":-89.0895,"lo2":-89.0444,"dy":0.0017,"dx":0.0017,"nx":28,"ny":28,"refTime":"2023-09-10T09:00:00:Z","depth":0,"parameterNumber":3,"parameterNumberName":"V-component_of_WINDS"},"data":[0,0,0,0,0,0,0,0,0,0,0,0,0,0,0,0,0,0,0,0,0,0,0,0,0,0,0,0,0,0,0,0,0,0,0,0,0,0,0,0,0,0,0,0,0,0,0,0,0,0,0,0,0,0,0,0,0,0,1.5672,1.5671,0,1.5597,1.5597,1.5596,1.553,1.5529,1.5528,1.5528,1.545,1.5449,1.5448,0,0,0,0,0,0,0,0,0,0,0,0,0,1.5756,1.5755,1.5672,1.5671,1.567,1.5598,1.5597,1.5596,1.553,1.5529,1.5528,1.5527,1.5451,1.5449,1.5448,0,0,0,0,0,0,0,0,0,0,0,0,0,1.5704,1.5754,1.5672,1.5629,1.5624,1.5598,1.5596,1.5595,1.553,1.5529,1.5528,1.5527,1.5451,1.5449,1.5447,1.5458,0,0,1.5441,1.544,0,0,0,0,0,0,0,0,1.5707,1.5701,1.5636,1.5632,1.5627,1.5572,1.5598,1.5549,1.5531,1.5566,1.5528,1.5526,1.5492,1.5486,1.5475,1.5454,1.5451,1.5441,1.544,1.5439,1.5438,0,0,0,0,0,0,0,1.5711,1.5704,1.5642,1.5635,1.5629,1.5612,1.5604,1.5588,1.5536,1.5563,1.5558,1.555,1.5489,1.5477,1.5472,1.545,1.5441,1.5439,1.5438,1.5437,1.5431,1.5432,0,0,0,0,0,0,1.5721,1.5707,1.5645,1.564,1.5665,1.5612,1.5602,1.5591,1.5536,1.5527,1.5551,1.5547,1.5481,1.5475,1.5469,1.5476,1.5439,1.5437,1.5436,1.543,1.5431,1.5432,0,0,0,0,0,0,1.5723,1.5716,1.5648,1.5672,1.5662,1.5612,1.5599,1.559,1.5578,1.5527,1.5517,1.5548,1.548,1.5472,1.5461,1.5472,1.5436,1.5434,1.5429,1.543,1.5432,1.549,0,0,0,0,0,0,1.5726,1.5718,1.5722,1.5673,1.5661,1.5641,1.56,1.5589,1.5574,1.5569,1.5522,1.5513,1.5478,1.5464,1.5459,1.5469,1.5433,1.5427,1.5429,1.5431,1.5487,1.5494,1.55,0,0,0,0,0,1.5729,1.5741,1.5722,1.5715,1.5665,1.5642,1.5635,1.5595,1.5576,1.5579,1.5546,1.5515,1.5472,1.5463,1.5457,1.5467,1.5426,1.5429,1.5431,1.5484,1.5493,1.5499,0,0,0,0,0,0,1.5792,1.5734,1.5712,1.5709,1.5681,1.5631,1.5633,1.5605,1.5582,1.5577,1.5528,1.5518,1.5511,1.5488,1.5479,1.5473,1.5445,1.5446,1.5488,1.5495,1.5501,1.5506,1.5431,0,0,0,0,0,1.5806,1.5792,1.5742,1.5744,1.5731,1.5685,1.5673,1.5644,1.5613,1.5601,1.5567,1.5538,1.5517,1.5505,1.5484,1.5484,1.5472,1.5487,1.5494,1.5499,1.55,1.5496,1.5502,1.544,1.544,1.544,0,0,1.5834,1.58,1.5795,1.5756,1.5731,1.5716,1.5675,1.5663,1.5651,1.5599,1.5585,1.556,1.5523,1.5517,1.5513,1.5497,1.5514,1.5502,1.5507,1.5505,1.5499,1.5505,1.551,1.5442,1.5441,1.5441,0,0,1.5877,1.5851,1.5849,1.5824,1.5787,1.5756,1.5755,1.5709,1.569,1.5676,1.5635,1.5621,1.5588,1.5563,1.5546,1.5579,1.5548,1.5573,1.5605,1.5602,1.5606,1.561,1.562,1.5624,1.5575,1.5575,1.5575,0,1.5916,1.5894,1.5851,1.584,1.5824,1.5776,1.5772,1.575,1.5708,1.5697,1.5681,1.5637,1.5609,1.5595,1.5603,1.5592,1.5588,1.5578,1.5609,1.5613,1.5616,1.5625,1.5629,1.5578,1.5578,1.5577,1.5577,0,1.5943,1.5928,1.5931,1.589,1.5874,1.5867,1.5822,1.5811,1.5784,1.5754,1.5739,1.5704,1.5674,1.5669,1.5642,1.5651,1.5642,1.5619,1.559,1.5626,1.5633,1.5636,1.5582,1.5581,1.558,1.558,0,0,1.6023,1.5959,1.596,1.594,1.5895,1.5882,1.5873,1.5843,1.5833,1.5806,1.5795,1.5768,1.5745,1.5726,1.5696,1.5693,1.5719,1.5669,1.5667,1.5678,1.5723,1.5741,1.5745,1.5699,1.5699,1.57,1.5726,0,1.6057,1.6037,1.5998,1.599,1.5975,1.5929,1.592,1.5891,1.5863,1.5845,1.5814,1.5794,1.5767,1.5754,1.575,1.5717,1.5727,1.5714,1.5687,1.5687,1.5696,1.5749,1.5768,1.5794,1.5729,1.5729,1.5729,0,1.6095,1.6069,1.606,1.6013,1.6005,1.5998,1.5967,1.5952,1.5917,1.5896,1.5875,1.5842,1.5828,1.5802,1.5781,1.5774,1.576,1.5742,1.5742,1.5737,1.5709,1.5744,1.5802,1.5805,1.5734,1.5733,1.5733,0,1.6152,1.6115,1.6104,1.6089,1.6036,1.6031,1.6009,1.5973,1.5957,1.593,1.5919,1.5891,1.5875,1.5853,1.5813,1.5799,1.5796,1.5768,1.5777,1.5778,1.5778,1.5778,1.5833,1.5772,1.5772,1.5772,1.5772,0,1.6193,1.6189,1.6129,1.6122,1.6115,1.607,1.6064,1.6037,1.6006,1.5992,1.5951,1.5938,1.5887,1.5868,1.5837,1.5823,1.5817,1.5799,1.579,1.5802,1.5804,1.5791,1.5788,1.5773,1.5773,1.5773,1.5773,0,1.6255,1.6215,1.62,1.615,1.6138,1.6135,1.6092,1.6083,1.6052,1.6035,1.6029,1.5981,1.5957,1.5915,1.5879,1.5857,1.585,1.5836,1.5861,1.5856,1.5867,1.5866,1.5914,1.5918,1.5857,1.5858,1.5858,0,1.6284,1.6279,1.6229,1.6216,1.6195,1.6177,1.616,1.6115,1.61,1.6059,1.6055,1.6028,1.6003,1.5967,1.5928,1.59,1.5884,1.5903,1.588,1.5891,1.5882,1.5883,1.5881,1.5908,1.5909,1.591,1.591,0,1.6337,1.6317,1.6295,1.6266,1.6248,1.6223,1.6195,1.6188,1.6136,1.6121,1.6096,1.6077,1.604,1.6013,1.5979,1.5955,1.5923,1.5918,1.5918,1.5929,1.5944,1.5934,1.5874,1.5917,1.5916,1.5916,1.5915,1.5915,1.6382,1.6375,1.6338,1.6314,1.6289,1.6264,1.6253,1.6221,1.6199,1.6166,1.614,1.6117,1.6081,1.6032,1.6009,1.599,1.5975,1.5977,1.5977,1.5977,1.5981,1.5948,1.5983,1.5983,1.5983,1.5983,1.5983,0,1.6432,1.6406,1.6384,1.6347,1.6328,1.6302,1.627,1.6255,1.6235,1.6204,1.6181,1.6152,1.6125,1.6084,1.6054,1.6046,1.603,1.6039,1.6038,1.6033,1.5996,1.5998,1.6052,1.6052,1.6052,1.6052,1.6052,1.6052,1.6455,1.6441,1.6417,1.639,1.6364,1.634,1.6324,1.63,1.6275,1.6244,1.6222,1.6196,1.616,1.6127,1.6101,1.6089,1.6079,1.6092,1.6076,1.6042,1.6036,1.603,1.6031,1.6091,1.6091,1.6114,1.6114,1.6115]}]]